Home > Time Zones > World Clock > Weather > Spain > Ibiza > Past weeks

Flag for Spain Weather past 2 weeks in Ibiza, Ibiza, Spain

Now
55 °F

Clear.


Feels Like: 52 °F
Forecast: 52 / 65 °F
Wind: 12 mph from Southwest

Location: Ibiza / Es Codola

Current Time: Feb 28, 2015 at 10:13:50 PM

Latest Report: Feb 28, 2015 at 9:30 PM


Visibility: 10 mi

Pressure: 30.18 "Hg

Humidity: 67%

Dew point: 45 °F

Location of IbizaLocation

Historic Weather in Ibiza — Graph

°F

Ibiza temperature yesterday

Maximum temperature yesterday: 63 °F (at 12:30 PM)
Minimum temperature yesterday: 45 °F (at 9:00 PM)
Average temperature yesterday: 55 °F

Past Weeks' High & Low Weather Summary

 TemperatureHumidityPressure
High66 °F (Feb 23, 1:00 PM)100% (Feb 14, 12:00 AM)30.45 "Hg (Feb 14, 12:00 AM)
Low41 °F (Feb 28, 5:30 AM)29% (Feb 22, 3:30 PM)29.62 "Hg (Feb 21, 5:00 PM)
Average55 °F68%30.06 "Hg
* Reported Feb 13 9:00 PM — Feb 28 9:00 PM, Ibiza, Weather by CustomWeather, © 2015

Note: Actual official high and low records may vary slightly from our data, if they occured in-between our weather recording intervals... More about our weather records

Advertising

Ibiza weather history for previous 24 hours

 ConditionsComfort  
Time TempWeatherWind HumidityBarometerVisibility
9:00 PM
Sat, Feb 28
55 °FClear.10 mph72%30.18 "Hg10 mi
8:30 PM55 °FClear.7 mph72%30.18 "Hg10 mi
8:00 PM54 °FClear.6 mph72%30.18 "Hg10 mi
7:30 PM54 °FClear.6 mph72%30.18 "Hg10 mi
7:00 PM54 °FClear.6 mph67%30.15 "Hg10 mi
6:30 PM54 °FSunny.7 mph67%30.15 "Hg10 mi
6:00 PM55 °FSunny.7 mph63%30.15 "Hg10 mi
5:30 PM55 °FSunny.9 mph59%30.15 "Hg10 mi
5:00 PM55 °FSunny.9 mph55%30.15 "Hg10 mi
4:30 PM55 °FSunny.8 mph55%30.15 "Hg10 mi
4:00 PM55 °FSunny.10 mph55%30.15 "Hg10 mi
3:30 PM57 °FSunny.10 mph55%30.15 "Hg10 mi
3:00 PM57 °FPassing clouds.10 mph51%30.15 "HgN/A
2:30 PM57 °FPassing clouds.13 mph48%30.18 "HgN/A
2:00 PM57 °FPassing clouds.14 mph48%30.15 "HgN/A
1:30 PM57 °FPassing clouds.13 mph51%30.18 "HgN/A
1:00 PM57 °FPassing clouds.13 mph48%30.21 "HgN/A
12:30 PM57 °FPassing clouds.6 mph44%30.21 "HgN/A
12:00 PM59 °FPassing clouds.5 mph42%30.21 "HgN/A
11:30 AM57 °FPassing clouds.1 mph39%30.21 "HgN/A
11:00 AM55 °FPassing clouds.6 mph47%30.21 "HgN/A
10:30 AM55 °FPassing clouds.8 mph47%30.21 "HgN/A
10:00 AM55 °FPassing clouds.8 mph51%30.21 "HgN/A
9:30 AM52 °FSunny.1 mph67%30.21 "Hg10 mi
9:00 AM48 °FSunny.No wind76%30.18 "Hg10 mi
8:30 AM43 °FSunny.1 mph87%30.18 "Hg10 mi
8:00 AM41 °FSunny.No wind87%30.18 "Hg10 mi
7:30 AM41 °FSunny.1 mph87%30.18 "Hg10 mi
7:00 AM43 °FClear.No wind81%30.18 "Hg10 mi
6:30 AM41 °FClear.No wind87%30.18 "Hg10 mi
6:00 AM43 °FClear.No wind81%30.15 "Hg10 mi
5:30 AM41 °FClear.No wind87%30.15 "Hg10 mi
12:00 AM43 °FClear.No wind81%30.18 "Hg10 mi
11:30 PM
Fri, Feb 27
45 °FClear.7 mph81%30.18 "Hg10 mi
11:00 PM45 °FClear.7 mph81%30.15 "Hg10 mi
10:30 PM45 °FClear.5 mph81%30.15 "Hg10 mi
10:00 PM45 °FClear.No wind87%30.15 "Hg10 mi
Weather by CustomWeather, © 2015

See weather overviewHow to use our weather pages